Location: LDNL
(36.4545°S, 141.6685°E)
Time: 11:41:40
(UTC+10:00)

Explorer 7 - Pass Details

Date: 14 August 2022
Orbit: 482 x 668 km, 50.3° (Epoch: 26 September)

Event Time Altitude Azimuth Distance (km) Brightness Sun altitude
Rises 00:23:39 0° 229° (SW) 2,883 - -67.9°
Reaches altitude 10° 00:26:04 10° 225° (SW) 1,942 - -67.9°
Maximum altitude 00:30:27 58° 145° (SE) 666 - -68.0°
Drops below altitude 10° 00:34:31 10° 65° (ENE) 1,808 - -68.1°
Sets 00:36:42 0° 60° (ENE) 2,663 - -68.1°
